Home > Time Zones > World Clock > Weather > U.S.A. > Gary > Past weeks

Flag for U.S.A. Weather past 2 weeks in Gary, Indiana, U.S.A.

Now
54 °F

Clear.


Feels Like: 52 °F
Forecast: 51 / 72 °F
Wind: 7 mph from Southeast

Location: Lansing Municipal Airport

Current Time: Sep 19, 2014 at 5:18:49 AM

Latest Report: Sep 19, 2014 at 4:55 AM


Visibility: 10 mi

Pressure: 30.16 "Hg

Humidity: 88%

Dew point: 50 °F

Location of GaryLocation

Historic Weather in Gary — Graph

°F

Gary temperature yesterday

Maximum temperature yesterday: 70 °F (at 1:35 PM)
Minimum temperature yesterday: 46 °F (at 6:55 AM)
Average temperature yesterday: 58 °F

Past Weeks' High & Low Weather Summary

 TemperatureHumidityPressure
High87 °F (Sep 5, 2:35 PM)100% (Sep 17, 5:15 AM)30.37 "Hg (Sep 17, 5:15 AM)
Low40 °F (Sep 13, 6:15 AM)38% (Sep 7, 1:55 PM)29.58 "Hg (Sep 10, 2:35 PM)
Average61 °F79%30.10 "Hg
* Reported Sep 4 3:15 AM — Sep 19 3:55 AM, Gary, Weather by CustomWeather, © 2014

Note: Actual official high and low records may vary slightly from our data, if they occured in-between our weather recording intervals... More about our weather records

Advertising

Gary weather history for previous 24 hours

 ConditionsComfort  
Time TempWeatherWind HumidityBarometerVisibility
3:55 AM
Sep 19
54 °FClear.7 mph89%30.15 "Hg10 mi
3:35 AM53 °FClear.6 mph91%30.15 "Hg10 mi
3:15 AM52 °FClear.6 mph93%30.15 "Hg10 mi
2:55 AM53 °FClear.5 mph92%30.16 "Hg10 mi
2:35 AM54 °FClear.5 mph91%30.16 "Hg10 mi
2:15 AM54 °FClear.6 mph90%30.17 "Hg10 mi
1:55 AM55 °FClear.6 mph91%30.16 "Hg10 mi
1:35 AM54 °FClear.5 mph94%30.16 "Hg10 mi
12:55 AM54 °FFog.3 mph97%30.16 "Hg5 mi
12:35 AM54 °FFog.No wind97%30.17 "Hg4 mi
12:15 AM55 °FFog.No wind99%30.16 "Hg3 mi
11:55 PM
Sep 18
56 °FFog.No wind98%30.16 "Hg3 mi
11:35 PM56 °FFog.No wind98%30.16 "Hg1 mi
11:15 PM57 °FFog.No wind95%30.16 "Hg5 mi
10:55 PM58 °FClear.No wind94%30.16 "Hg7 mi
10:35 PM59 °FClear.3 mph93%30.15 "Hg7 mi
10:15 PM59 °FClear.5 mph92%30.15 "Hg7 mi
9:55 PM59 °FClear.5 mph92%30.15 "Hg7 mi
9:35 PM58 °FClear.5 mph92%30.15 "Hg7 mi
9:15 PM58 °FClear.3 mph92%30.15 "Hg7 mi
8:55 PM58 °FClear.3 mph91%30.15 "Hg7 mi
8:35 PM59 °FClear.No wind90%30.14 "Hg7 mi
8:15 PM59 °FClear.5 mph88%30.14 "Hg7 mi
7:55 PM59 °FClear.No wind87%30.13 "Hg10 mi
7:35 PM60 °FClear.6 mph86%30.13 "Hg10 mi
7:15 PM60 °FClear.6 mph85%30.12 "Hg10 mi
6:55 PM61 °FClear.7 mph84%30.12 "Hg7 mi
6:35 PM62 °FScattered clouds.8 mph81%30.11 "Hg10 mi
6:15 PM63 °FScattered clouds.9 mph79%30.11 "Hg10 mi
5:55 PM64 °FScattered clouds.9 mph75%30.11 "Hg10 mi
5:35 PM64 °FScattered clouds.9 mph74%30.11 "Hg10 mi
5:15 PM65 °FScattered clouds.7 mph74%30.11 "Hg10 mi
4:55 PM65 °FSunny.10 mph70%30.11 "Hg10 mi
4:35 PM66 °FSunny.8 mph63%30.11 "Hg10 mi
4:15 PM67 °FSunny.9 mph60%30.11 "Hg10 mi
3:55 PM67 °FSunny.10 mph58%30.11 "Hg10 mi
3:35 PM68 °FSunny.8 mph56%30.11 "Hg10 mi
3:15 PM68 °FSunny.8 mph54%30.11 "Hg10 mi
2:55 PM69 °FSunny.12 mph50%30.12 "Hg10 mi
2:15 PM69 °FSunny.10 mph47%30.12 "Hg10 mi
1:55 PM69 °FSunny.9 mph48%30.12 "Hg10 mi
1:35 PM70 °FSunny.10 mph49%30.13 "Hg10 mi
1:15 PM69 °FSunny.No wind48%30.13 "Hg10 mi
12:55 PM69 °FSunny.6 mph48%30.14 "Hg10 mi
12:35 PM68 °FSunny.6 mph48%30.14 "Hg10 mi
12:15 PM68 °FSunny.5 mph50%30.14 "Hg10 mi
11:55 AM67 °FSunny.6 mph53%30.15 "Hg10 mi
11:35 AM67 °FSunny.5 mph54%30.15 "Hg10 mi
11:15 AM66 °FSunny.8 mph54%30.15 "Hg10 mi
10:55 AM65 °FSunny.6 mph56%30.15 "Hg10 mi
10:35 AM65 °FSunny.6 mph53%30.15 "Hg10 mi
10:15 AM64 °FSunny.3 mph63%30.15 "Hg10 mi
9:55 AM62 °FSunny.No wind68%30.16 "Hg10 mi
9:35 AM61 °FSunny.No wind72%30.16 "Hg7 mi
9:15 AM59 °FSunny.No wind78%30.16 "Hg7 mi
8:55 AM57 °FScattered clouds.No wind83%30.15 "Hg7 mi
8:35 AM55 °FScattered clouds.3 mph87%30.14 "Hg7 mi
8:15 AM54 °FPartly sunny.No wind89%30.13 "Hg7 mi
7:55 AM53 °FScattered clouds.No wind88%30.13 "Hg7 mi
7:35 AM51 °FSunny.No wind93%30.12 "Hg7 mi
7:15 AM49 °FSunny.No wind96%30.11 "Hg7 mi
6:55 AM46 °FSunny.No wind98%30.10 "Hg7 mi
6:35 AM47 °FFog.No wind98%30.08 "Hg4 mi
6:15 AM47 °FClear.No wind97%30.08 "Hg7 mi
5:55 AM47 °FClear.No wind97%30.08 "Hg7 mi
5:35 AM47 °FClear.No wind97%30.07 "Hg10 mi
5:15 AM48 °FClear.No wind99%30.06 "Hg10 mi
Weather by CustomWeather, © 2014

See weather overviewHow to use our weather pages